• în România
  • Lista ţărilor
  • Pe 7 zile
  • Temperatura apei
  • Hartă satelitară
  • Meteo pe hartă
  • Widget-uri
  • user-avatar
    Intrare

    Meteo pe oră la Aboleshevo

    Astăzi, 16 Noiembrie, Vineri

    Timp Temperatura Precipitaţii Vânt Presiune Umiditate
    00:00 -1°C° 0 mm 1 m/s 761 mmHg 76%
    01:00 -1°C° 0 mm 1 m/s 761 mmHg 76%
    02:00 -1°C° 0 mm 1 m/s 762 mmHg 76%
    03:00 -1°C° 0 mm 1 m/s 762 mmHg 76%
    04:00 -1°C° 0 mm 1 m/s 762 mmHg 76%
    05:00 -1°C° 0 mm 1 m/s 762 mmHg 77%
    06:00 -1°C° 0 mm 1 m/s 763 mmHg 76%
    07:00 -1°C° 0 mm 1 m/s 763 mmHg 76%
    08:00 -1°C° 0 mm 1 m/s 763 mmHg 75%
    09:00 0°C° 0 mm 1 m/s 764 mmHg 71%
    10:00 +1°C° 0 mm 1 m/s 764 mmHg 67%
    11:00 +2°C° 0 mm 1 m/s 764 mmHg 63%
    12:00 +2°C° 0 mm 1 m/s 764 mmHg 64%
    13:00 +2°C° 0 mm 1 m/s 764 mmHg 65%
    14:00 +2°C° 0 mm 1 m/s 764 mmHg 66%
    15:00 +1°C° 0 mm 1 m/s 764 mmHg 69%
    16:00 0°C° 0 mm 1 m/s 764 mmHg 72%
    17:00 0°C° 0 mm 1 m/s 764 mmHg 75%
    18:00 -1°C° 0 mm 1 m/s 764 mmHg 76%
    19:00 -3°C° 0 mm 2 m/s 764 mmHg 76%
    20:00 -3°C° 0 mm 2 m/s 764 mmHg 77%
    21:00 -3°C° 0 mm 2 m/s 763 mmHg 77%
    22:00 -3°C° 0 mm 2 m/s 763 mmHg 77%
    23:00 -3°C° 0 mm 2 m/s 763 mmHg 78%

    Mâine, 17 Noiembrie, Sâmbătă

    Timp Temperatura Precipitaţii Vânt Presiune Umiditate
    00:00 -2°C° 0 mm 2 m/s 763 mmHg 78%
    01:00 -2°C° 0 mm 2 m/s 763 mmHg 78%
    02:00 -2°C° 0 mm 2 m/s 763 mmHg 78%
    03:00 -2°C° 0 mm 2 m/s 762 mmHg 79%
    04:00 -2°C° 0 mm 3 m/s 761 mmHg 79%
    05:00 -4°C° 0 mm 3 m/s 761 mmHg 80%
    06:00 -2°C° 0 mm 3 m/s 761 mmHg 81%
    07:00 -2°C° 0 mm 3 m/s 760 mmHg 81%
    08:00 -2°C° 0 mm 3 m/s 760 mmHg 81%
    09:00 -3°C° 0 mm 4 m/s 759 mmHg 79%
    10:00 -2°C° 0 mm 4 m/s 759 mmHg 77%
    11:00 -1°C° 0 mm 4 m/s 758 mmHg 74%
    12:00 -1°C° 0.1 mm 4 m/s 757 mmHg 75%
    13:00 -1°C° 0.1 mm 4 m/s 756 mmHg 76%
    14:00 -1°C° 0.1 mm 4 m/s 756 mmHg 76%
    15:00 -1°C° 0.5 mm 4 m/s 755 mmHg 80%
    16:00 -1°C° 0.5 mm 4 m/s 754 mmHg 83%
    17:00 -1°C° 0.5 mm 4 m/s 753 mmHg 87%
    18:00 -1°C° 0.2 mm 4 m/s 752 mmHg 87%
    19:00 -1°C° 0.2 mm 4 m/s 752 mmHg 88%
    20:00 -1°C° 0.2 mm 4 m/s 751 mmHg 89%
    21:00 -1°C° 0.1 mm 4 m/s 750 mmHg 89%
    22:00 -1°C° 0.1 mm 4 m/s 749 mmHg 90%
    23:00 -1°C° 0.1 mm 4 m/s 748 mmHg 91%

    Poimâine, 18 Noiembrie, Duminică

    Timp Temperatura Precipitaţii Vânt Presiune Umiditate
    00:00 -1°C° 0.1 mm 4 m/s 747 mmHg 92%
    01:00 -1°C° 0.1 mm 4 m/s 747 mmHg 92%
    02:00 0°C° 0.1 mm 3 m/s 746 mmHg 93%
    03:00 0°C° 0.3 mm 3 m/s 745 mmHg 94%
    04:00 0°C° 0.3 mm 3 m/s 745 mmHg 94%
    05:00 +1°C° 0.3 mm 2 m/s 744 mmHg 95%
    06:00 +1°C° 0.2 mm 2 m/s 744 mmHg 95%
    07:00 +1°C° 0.2 mm 2 m/s 744 mmHg 96%
    08:00 +1°C° 0.2 mm 2 m/s 743 mmHg 97%
    09:00 +2°C° 0.3 mm 1 m/s 743 mmHg 97%
    10:00 +2°C° 0.3 mm 1 m/s 743 mmHg 97%
    11:00 +3°C° 0.3 mm 1 m/s 743 mmHg 97%
    12:00 +3°C° 0.4 mm 1 m/s 744 mmHg 97%
    13:00 +3°C° 0.4 mm 1 m/s 744 mmHg 98%
    14:00 +2°C° 0.4 mm 1 m/s 744 mmHg 98%
    15:00 +2°C° 0.1 mm 1 m/s 744 mmHg 98%
    16:00 +2°C° 0.1 mm 1 m/s 744 mmHg 97%
    17:00 +1°C° 0.1 mm 2 m/s 745 mmHg 97%
    18:00 +1°C° 0.2 mm 2 m/s 745 mmHg 97%
    19:00 +1°C° 0.2 mm 2 m/s 746 mmHg 97%
    20:00 +1°C° 0.2 mm 2 m/s 746 mmHg 97%
    21:00 +1°C° 0.2 mm 2 m/s 746 mmHg 97%
    22:00 -1°C° 0.2 mm 2 m/s 747 mmHg 97%
    23:00 -1°C° 0.2 mm 2 m/s 747 mmHg 97%

    19 Noiembrie, Luni

    Timp Temperatura Precipitaţii Vânt Presiune Umiditate
    00:00 -1°C° 0.3 mm 2 m/s 748 mmHg 96%
    01:00 -1°C° 0.3 mm 3 m/s 748 mmHg 96%
    02:00 0°C° 0.3 mm 3 m/s 748 mmHg 95%
    03:00 -1°C° 0.3 mm 3 m/s 749 mmHg 95%
    04:00 -1°C° 0.3 mm 3 m/s 749 mmHg 95%
    05:00 -1°C° 0.3 mm 3 m/s 749 mmHg 95%
    06:00 -1°C° 0.2 mm 3 m/s 749 mmHg 95%
    07:00 -1°C° 0.2 mm 2 m/s 750 mmHg 95%
    08:00 -1°C° 0.2 mm 2 m/s 750 mmHg 95%
    09:00 -1°C° 0.2 mm 2 m/s 751 mmHg 95%
    10:00 -1°C° 0.2 mm 2 m/s 751 mmHg 95%
    11:00 +1°C° 0.2 mm 2 m/s 752 mmHg 95%
    12:00 +1°C° 0.1 mm 2 m/s 752 mmHg 94%
    13:00 +1°C° 0.1 mm 2 m/s 753 mmHg 94%
    14:00 +1°C° 0.1 mm 2 m/s 753 mmHg 93%
    15:00 -1°C° 0 mm 3 m/s 754 mmHg 93%
    16:00 -1°C° 0 mm 3 m/s 754 mmHg 93%
    17:00 -1°C° 0 mm 3 m/s 754 mmHg 93%
    18:00 -1°C° 0 mm 3 m/s 755 mmHg 92%
    19:00 -2°C° 0 mm 3 m/s 755 mmHg 92%
    20:00 -2°C° 0 mm 3 m/s 756 mmHg 91%
    21:00 -4°C° 0 mm 3 m/s 756 mmHg 91%
    22:00 -4°C° 0 mm 2 m/s 757 mmHg 91%
    23:00 -5°C° 0 mm 2 m/s 757 mmHg 91%

    20 Noiembrie, Marţi

    Timp Temperatura Precipitaţii Vânt Presiune Umiditate
    00:00 -5°C° 0 mm 2 m/s 757 mmHg 90%
    01:00 -6°C° 0 mm 2 m/s 757 mmHg 88%
    02:00 -6°C° 0 mm 2 m/s 757 mmHg 87%
    03:00 -6°C° 0 mm 2 m/s 757 mmHg 85%
    04:00 -6°C° 0 mm 2 m/s 757 mmHg 84%
    05:00 -6°C° 0 mm 2 m/s 757 mmHg 83%
    06:00 -6°C° 0 mm 2 m/s 757 mmHg 82%
    07:00 -6°C° 0 mm 2 m/s 757 mmHg 82%
    08:00 -6°C° 0 mm 2 m/s 757 mmHg 81%
    09:00 -5°C° 0 mm 2 m/s 757 mmHg 79%
    10:00 -4°C° 0 mm 2 m/s 757 mmHg 76%
    11:00 -3°C° 0 mm 2 m/s 757 mmHg 74%
    12:00 -3°C° 0 mm 2 m/s 757 mmHg 76%
    13:00 -3°C° 0 mm 2 m/s 757 mmHg 77%
    14:00 -1°C° 0 mm 1 m/s 756 mmHg 79%
    15:00 -2°C° 0 mm 1 m/s 756 mmHg 80%
    16:00 -2°C° 0 mm 1 m/s 756 mmHg 82%
    17:00 -5°C° 0 mm 2 m/s 755 mmHg 83%
    18:00 -3°C° 0 mm 1 m/s 755 mmHg 83%
    19:00 -3°C° 0 mm 1 m/s 755 mmHg 82%
    20:00 -3°C° 0 mm 1 m/s 755 mmHg 82%
    21:00 -3°C° 0 mm 1 m/s 755 mmHg 81%
    22:00 -4°C° 0 mm 1 m/s 755 mmHg 81%
    23:00 -4°C° 0 mm 1 m/s 755 mmHg 80%

    21 Noiembrie, Miercuri

    Timp Temperatura Precipitaţii Vânt Presiune Umiditate
    00:00 -4°C° 0 mm 1 m/s 754 mmHg 80%
    01:00 -4°C° 0 mm 1 m/s 754 mmHg 80%
    02:00 -4°C° 0 mm 1 m/s 754 mmHg 80%
    03:00 -4°C° 0 mm 1 m/s 753 mmHg 80%
    04:00 -4°C° 0 mm 1 m/s 753 mmHg 80%
    05:00 -4°C° 0 mm 1 m/s 753 mmHg 80%
    06:00 -4°C° 0 mm 1 m/s 753 mmHg 81%
    07:00 -4°C° 0 mm 1 m/s 753 mmHg 81%
    08:00 -4°C° 0 mm 1 m/s 753 mmHg 82%
    09:00 -5°C° 0 mm 2 m/s 752 mmHg 80%
    10:00 -4°C° 0 mm 2 m/s 752 mmHg 78%
    11:00 -3°C° 0 mm 2 m/s 752 mmHg 77%
    12:00 -3°C° 0 mm 2 m/s 752 mmHg 78%
    13:00 -3°C° 0 mm 2 m/s 751 mmHg 79%
    14:00 -3°C° 0 mm 2 m/s 751 mmHg 80%
    15:00 -4°C° 0 mm 2 m/s 751 mmHg 81%
    16:00 -5°C° 0 mm 2 m/s 750 mmHg 83%
    17:00 -5°C° 0 mm 2 m/s 750 mmHg 84%
    18:00 -5°C° 0 mm 2 m/s 750 mmHg 83%
    19:00 -6°C° 0 mm 2 m/s 750 mmHg 83%
    20:00 -6°C° 0 mm 2 m/s 749 mmHg 82%
    21:00 -6°C° 0 mm 2 m/s 749 mmHg 81%
    22:00 -6°C° 0 mm 2 m/s 749 mmHg 80%
    23:00 -6°C° 0 mm 2 m/s 749 mmHg 79%
    Arată mai mult